TimeCDT,TemperatureF,Dew PointF,Humidity,Sea Level PressureIn,VisibilityMPH,Wind Direction,Wind SpeedMPH,Gust SpeedMPH,PrecipitationIn,Events,Conditions,WindDirDegrees,DateUTC
12:13 AM,28.4,12.2,51,30.11,10.0,ENE,9.2,-,N/A,,Clear,70,2013-04-11 05:13:00
12:33 AM,28.4,12.2,51,30.11,10.0,East,6.9,-,N/A,,Clear,80,2013-04-11 05:33:00
12:52 AM,28.4,12.2,51,30.11,10.0,East,6.9,-,N/A,,Clear,90,2013-04-11 05:52:00
1:13 AM,28.4,12.2,51,30.11,10.0,ENE,6.9,-,N/A,,Clear,70,2013-04-11 06:13:00
1:33 AM,28.4,12.2,51,30.09,10.0,East,6.9,-,N/A,,Clear,80,2013-04-11 06:33:00
1:53 AM,28.4,10.4,47,30.09,10.0,ENE,8.1,-,N/A,,Clear,70,2013-04-11 06:53:00
2:12 AM,28.4,10.4,47,30.09,10.0,East,5.8,-,N/A,,Clear,80,2013-04-11 07:12:00
2:33 AM,28.4,10.4,47,30.09,10.0,ENE,5.8,-,N/A,,Clear,60,2013-04-11 07:33:00
2:53 AM,26.6,10.4,51,30.07,10.0,ENE,9.2,-,N/A,,Clear,70,2013-04-11 07:53:00
3:12 AM,26.6,10.4,51,30.07,10.0,East,8.1,-,N/A,,Clear,80,2013-04-11 08:12:00
3:33 AM,26.6,10.4,51,30.07,10.0,East,10.4,17.3,N/A,,Clear,80,2013-04-11 08:33:00
3:53 AM,26.6,10.4,51,30.07,10.0,ENE,10.4,-,N/A,,Clear,70,2013-04-11 08:53:00
4:12 AM,26.6,10.4,51,30.06,10.0,ENE,9.2,-,N/A,,Clear,70,2013-04-11 09:12:00
4:33 AM,26.6,10.4,51,30.07,10.0,East,8.1,-,N/A,,Clear,80,2013-04-11 09:33:00
4:53 AM,24.8,12.2,59,30.05,10.0,East,8.1,-,N/A,,Clear,80,2013-04-11 09:53:00
5:12 AM,24.8,12.2,59,30.05,10.0,East,10.4,18.4,N/A,,Clear,80,2013-04-11 10:12:00
5:33 AM,24.8,12.2,59,30.04,10.0,East,10.4,18.4,N/A,,Clear,80,2013-04-11 10:33:00
5:53 AM,24.8,12.2,59,30.04,10.0,ENE,10.4,-,N/A,,Clear,70,2013-04-11 10:53:00
6:12 AM,24.8,12.2,59,30.04,10.0,East,6.9,17.3,N/A,,Clear,80,2013-04-11 11:12:00
6:33 AM,24.8,12.2,59,30.05,10.0,ENE,9.2,-,N/A,,Clear,70,2013-04-11 11:33:00
6:53 AM,24.8,14.0,64,30.04,10.0,East,10.4,16.1,N/A,,Clear,90,2013-04-11 11:53:00
7:12 AM,24.8,14.0,64,30.04,10.0,East,11.5,21.9,N/A,,Clear,80,2013-04-11 12:12:00
7:33 AM,24.8,14.0,64,30.02,10.0,East,13.8,21.9,N/A,,Clear,80,2013-04-11 12:33:00
7:53 AM,24.8,14.0,64,30.02,10.0,East,13.8,24.2,N/A,,Clear,90,2013-04-11 12:53:00
8:12 AM,24.8,14.0,64,30.02,10.0,East,13.8,25.3,N/A,,Clear,80,2013-04-11 13:12:00
8:33 AM,24.8,14.0,64,30.01,10.0,East,17.3,20.7,N/A,,Clear,80,2013-04-11 13:33:00
8:53 AM,24.8,14.0,64,30.00,10.0,East,13.8,20.7,N/A,,Clear,80,2013-04-11 13:53:00
9:12 AM,24.8,15.8,69,29.99,10.0,ENE,15.0,20.7,N/A,,Clear,70,2013-04-11 14:12:00
9:33 AM,24.8,14.0,64,29.99,10.0,East,6.9,19.6,N/A,,Clear,90,2013-04-11 14:33:00
9:53 AM,26.6,14.0,59,30.00,10.0,East,13.8,19.6,N/A,,Clear,90,2013-04-11 14:53:00
10:12 AM,26.6,14.0,59,30.01,10.0,East,13.8,20.7,N/A,,Scattered Clouds,80,2013-04-11 15:12:00
10:33 AM,26.6,14.0,59,30.00,10.0,East,16.1,20.7,N/A,,Clear,80,2013-04-11 15:33:00
10:53 AM,26.6,12.2,55,30.00,10.0,East,12.7,18.4,N/A,,Clear,90,2013-04-11 15:53:00
11:12 AM,28.4,12.2,51,30.00,10.0,East,12.7,20.7,N/A,,Clear,80,2013-04-11 16:12:00
11:33 AM,28.4,12.2,51,29.99,10.0,East,10.4,17.3,N/A,,Clear,90,2013-04-11 16:33:00
11:53 AM,28.4,12.2,51,29.99,10.0,East,13.8,21.9,N/A,,Clear,80,2013-04-11 16:53:00
12:12 PM,28.4,14.0,55,30.00,10.0,ENE,11.5,17.3,N/A,,Clear,70,2013-04-11 17:12:00
12:33 PM,28.4,14.0,55,30.00,10.0,East,9.2,17.3,N/A,,Scattered Clouds,80,2013-04-11 17:33:00
12:53 PM,28.4,12.2,51,30.00,10.0,ENE,6.9,17.3,N/A,,Mostly Cloudy,70,2013-04-11 17:53:00
1:12 PM,28.4,12.2,51,29.98,10.0,ENE,9.2,16.1,N/A,,Mostly Cloudy,60,2013-04-11 18:12:00
1:33 PM,26.6,19.4,74,29.99,1.0,East,17.3,28.8,N/A,Snow,Light Snow,100,2013-04-11 18:33:00
1:53 PM,24.8,21.2,86,29.98,1.0,ENE,8.1,-,N/A,Snow,Light Snow,70,2013-04-11 18:53:00
2:13 PM,24.8,21.2,86,29.97,1.0,ENE,9.2,16.1,N/A,Snow,Light Snow,70,2013-04-11 19:13:00
2:33 PM,26.6,21.2,80,29.98,10.0,ENE,6.9,-,N/A,,Mostly Cloudy,70,2013-04-11 19:33:00
2:52 PM,26.6,21.2,80,29.96,10.0,ENE,13.8,20.7,N/A,,Scattered Clouds,70,2013-04-11 19:52:00
3:12 PM,26.6,21.2,80,29.95,5.0,ENE,9.2,20.7,N/A,Snow,Light Snow,60,2013-04-11 20:12:00
3:33 PM,26.6,21.2,80,29.96,10.0,ENE,9.2,-,N/A,,Clear,60,2013-04-11 20:33:00
3:52 PM,26.6,19.4,74,29.95,10.0,NE,9.2,-,N/A,,Clear,50,2013-04-11 20:52:00
4:12 PM,28.4,17.6,64,29.94,10.0,ENE,8.1,16.1,N/A,,Clear,70,2013-04-11 21:12:00
4:33 PM,28.4,12.2,51,29.93,10.0,ENE,8.1,21.9,N/A,,Mostly Cloudy,60,2013-04-11 21:33:00
4:52 PM,28.4,14.0,55,29.92,10.0,ENE,8.1,17.3,N/A,,Mostly Cloudy,60,2013-04-11 21:52:00
5:12 PM,28.4,12.2,51,29.91,10.0,ENE,17.3,23.0,N/A,,Scattered Clouds,70,2013-04-11 22:12:00
5:33 PM,28.4,14.0,55,29.91,10.0,ENE,11.5,17.3,N/A,,Mostly Cloudy,60,2013-04-11 22:33:00
5:53 PM,28.4,14.0,55,29.91,10.0,ENE,10.4,-,N/A,,Overcast,60,2013-04-11 22:53:00
6:13 PM,28.4,12.2,51,29.92,10.0,ENE,13.8,26.5,N/A,,Overcast,70,2013-04-11 23:13:00
6:32 PM,28.4,14.0,55,29.92,10.0,East,10.4,18.4,N/A,,Overcast,80,2013-04-11 23:32:00
6:53 PM,28.4,15.8,59,29.91,10.0,ENE,13.8,21.9,N/A,,Overcast,70,2013-04-11 23:53:00
7:13 PM,28.4,17.6,64,29.92,10.0,East,20.7,26.5,N/A,,Overcast,80,2013-04-12 00:13:00
7:32 PM,28.4,17.6,64,29.92,10.0,East,17.3,26.5,N/A,,Overcast,80,2013-04-12 00:32:00
7:53 PM,28.4,19.4,69,29.91,10.0,ENE,13.8,24.2,N/A,,Overcast,70,2013-04-12 00:53:00
8:12 PM,26.6,21.2,80,29.90,3.0,ENE,9.2,21.9,N/A,Snow,Light Snow,70,2013-04-12 01:12:00
8:33 PM,26.6,21.2,80,29.90,7.0,ENE,10.4,-,N/A,Snow,Light Snow,70,2013-04-12 01:33:00
8:53 PM,26.6,21.2,80,29.89,10.0,ENE,12.7,17.3,N/A,,Overcast,60,2013-04-12 01:53:00
9:12 PM,26.6,21.2,80,29.88,10.0,ENE,8.1,16.1,N/A,,Overcast,60,2013-04-12 02:12:00
9:33 PM,26.6,21.2,80,29.88,10.0,ENE,9.2,16.1,N/A,,Overcast,60,2013-04-12 02:33:00
9:53 PM,26.6,21.2,80,29.89,10.0,ENE,10.4,16.1,N/A,,Overcast,70,2013-04-12 02:53:00
10:12 PM,26.6,21.2,80,29.88,10.0,East,12.7,16.1,N/A,,Overcast,80,2013-04-12 03:12:00
10:33 PM,26.6,21.2,80,29.88,10.0,ENE,9.2,-,N/A,,Overcast,70,2013-04-12 03:33:00
10:53 PM,26.6,21.2,80,29.88,10.0,ENE,8.1,16.1,N/A,,Overcast,60,2013-04-12 03:53:00
11:12 PM,26.6,21.2,80,29.89,10.0,ENE,8.1,-,N/A,,Mostly Cloudy,70,2013-04-12 04:12:00
11:33 PM,26.6,21.2,80,29.88,3.0,ENE,9.2,16.1,N/A,Snow,Light Snow,60,2013-04-12 04:33:00
11:53 PM,26.6,21.2,80,29.88,2.5,NE,9.2,16.1,N/A,Snow,Light Snow,50,2013-04-12 04:53:00